Weather Roundup
Issued by NWS

Home | Current Version | Previous Version | Text Only | Print | Product List | Glossary On
Versions: 1 2 3 4 5 6 7 8 9 10 11 12 13 14 15 16 17 18 19 20 21 22 23 24 25 26 27 28 29 30 31 32 33 34 35 36 37 38 39 40 41 42 43 44 45 46 47 48 49 50
000
NZUS93 KARX 260459
HRRWXR

CURRENT HOURLY OBSERVATIONS ACROSS
MUCH OF THE UPPER MISSISSIPPI VALLEY
NATIONAL WEATHER SERVICE LA CROSSE WI
1200 AM CDT MON JUN 26 2017


...SOUTHEAST MINNESOTA...


CITY           SKY/WX    TMP DP  RH WIND       PRES   REMARKS
ROCHESTER      PTCLDY    52  44  74 W8        30.14F
ROCHESTER/MAYO FAIR      58  42  55 W8        30.13S
WINONA         CLEAR     54  50  87 NW3       30.12S
AUSTIN         PTCLDY    54  45  71 SW3       30.14F
ALBERT LEA     CLEAR     55  45  67 CALM      30.16S
DODGE CENTER   PTCLDY    54  43  66 W6        30.14S
PRESTON        MOCLDY    54  43  66 W8        30.14F
OWATONNA       MOCLDY    54  46  76 W5        30.15S
FARIBAULT      MOCLDY    57  46  67 W6        30.14S
$$

...ELSEWHERE IN MINNESOTA...


CITY           SKY/WX    TMP DP  RH WIND       PRES   REMARKS
MINNEAPOLIS    CLEAR     59  44  57 N7        30.13S
INTNL FALLS    PTCLDY    45  43  93 W3        30.13S
DULUTH         CLEAR     45  43  93 NW5       30.10S
RED WING       PTCLDY    55  43  62 W3        30.11S
REDWOOD FALLS  MOCLDY    56  48  74 W3        30.17F
MANKATO        LGT RAIN  57  48  72 NW7       30.16S
WORTHINGTON    LGT RAIN  54  50  86 NW8       30.23R
FAIRMONT       CLOUDY    58  47  66 W8        30.18S
$$

...SOUTHWEST WISCONSIN...


CITY           SKY/WX    TMP DP  RH WIND       PRES   REMARKS
LA CROSSE      CLEAR     59  50  72 CALM      30.11R
PRAIRIE DU CHI CLEAR     52  47  84 CALM      30.13S
BOSCOBEL       CLEAR     52  49  89 SW5       30.12S
LONE ROCK      NOT AVBL
PLATTEVILLE    CLEAR     55  50  83 SW3       30.14S
FORT MC COY    CLEAR     49  47  95 CALM      30.12S
MAUSTON-NEW LI PTCLDY    54  50  87 W5        30.10S
VIROQUA        FAIR      54  47  77 W5        30.11F
WIS DELLS      MOCLDY    52  50  92 CALM      30.10F
$$

...ELSEWHERE IN WISCONSIN...


CITY           SKY/WX    TMP DP  RH WIND       PRES   REMARKS
MILWAUKEE      MOCLDY    58  53  84 W7        30.08S
MADISON        CLOUDY    54  52  93 NW3       30.10S
GREEN BAY      CLEAR     54  51  90 W8        30.03F
EAU CLAIRE     NOT AVBL
BLACK RVR FLS  FAIR      44  44 100 CALM      30.11S
MEDFORD        PTCLDY    49  47  92 W6        30.07F
WAUSAU         PTCLDY    50  48  93 W7        30.04F
WIS RAPIDS     CLEAR     50  47  89 W5        30.09S
MARSHFIELD     CLEAR     49  45  86 W5        30.07F
RICE LAKE      PTCLDY    50  47  89 CALM      30.13S
$$

...NORTHEAST IOWA...


CITY           SKY/WX    TMP DP  RH WIND       PRES   REMARKS
WATERLOO       CLEAR     53  44  71 W3        30.16S
DUBUQUE        CLEAR     52  46  80 W5        30.14F
DECORAH        CLEAR     52  45  76 SW3       30.13S
MASON CITY     PTCLDY    53  42  66 W6        30.18S
CHARLES CITY   PTCLDY    52  46  82 W3        30.16S
OELWEIN        PTCLDY    52  46  82 W7        30.16F
$$

...ELSEWHERE IN IOWA...


CITY           SKY/WX    TMP DP  RH WIND       PRES   REMARKS
DES MOINES     CLEAR     63  45  51 CALM      30.20R
IOWA CITY      PTCLDY    55  47  74 W5        30.18S
FORT DODGE     MOCLDY    54  45  71 CALM      30.19F
MARSHALLTOWN   PTCLDY    53  47  79 W5        30.18S
CEDAR RAPIDS   CLEAR     52  45  77 W7        30.16S
$$

...NORTHERN ILLINOIS...


CITY           SKY/WX    TMP DP  RH WIND       PRES   REMARKS
CHICAGO-OHARE  MOCLDY    60  49  66 NW6       30.11S
CHICAGO-MIDWAY PTCLDY    62  49  62 NW10      30.11S
MOLINE         PTCLDY    56  50  80 SW3       30.15F
ROCKFORD       CLEAR     56  50  80 W6        30.14R
PEORIA         CLEAR     56  53  90 CALM      30.16S
$$

NOTE: "FAIR" INDICATES FEW OR NO CLOUDS BELOW 12,000 FEET WITH NO
SIGNIFICANT WEATHER AND/OR OBSTRUCTIONS TO VISIBILITY. WIND
SPEEDS ARE IN MILES-PER-HOUR.




USA.gov is the U.S. government's official web portal to all federal, state and local government web resources and services.